This is the latest recevied weather packets stored in our database for station/object IZ2MHJ-3. If no packets are shown the sender has not sent any weather packets the latest 10 day(s).
| Time | Temp. | Humidity | Pressure | Rain* | Wind** | Luminosity | Snow |
|---|---|---|---|---|---|---|---|
| 1787816416 | 30° C | 56% | 1019.1 hPa | - | - | - | - |
| 1787815216 | 27.78° C | 63% | 1018.8 hPa | - | - | - | - |
| 1787814016 | 27.22° C | 63% | 1018.7 hPa | - | - | - | - |
| 1787812815 | 27.22° C | 63% | 1018.5 hPa | - | - | - | - |
| 1787811615 | 26.11° C | 69% | 1018.7 hPa | - | - | - | - |
| 1787810415 | 24.44° C | 72% | 1018.8 hPa | - | - | - | - |
| 1787809214 | 24.44° C | 72% | 1019 hPa | - | - | - | - |
| 1787808014 | 23.33° C | 74% | 1019.1 hPa | - | - | - | - |
| 1787806814 | 23.33° C | 75% | 1019.1 hPa | - | - | - | - |
| 1787805614 | 23.33° C | 75% | 1018.8 hPa | - | - | - | - |
| 1787804413 | 22.78° C | 76% | 1018.8 hPa | - | - | - | - |
| 1787803213 | 22.78° C | 78% | 1018.9 hPa | - | - | - | - |
| 1787802013 | 23.33° C | 76% | 1018.9 hPa | - | - | - | - |
| 1787800812 | 23.33° C | 76% | 1018.6 hPa | - | - | - | - |
| 1787799612 | 23.33° C | 76% | 1018.5 hPa | - | - | - | - |
| 1787798412 | 23.89° C | 75% | 1018.4 hPa | - | - | - | - |
| 1787797211 | 23.33° C | 76% | 1018.3 hPa | - | - | - | - |
| 1787796012 | 23.89° C | 75% | 1018.3 hPa | - | - | - | - |
| 1787794811 | 23.89° C | 76% | 1018.2 hPa | - | - | - | - |
| 1787793610 | 24.44° C | 77% | 1018.3 hPa | - | - | - | - |
| 1787792410 | 24.44° C | 75% | 1018.4 hPa | - | - | - | - |
| 1787791210 | 24.44° C | 75% | 1018.5 hPa | - | - | - | - |
| 1787790009 | 24.44° C | 77% | 1018.4 hPa | - | - | - | - |
| 1787788809 | 25° C | 74% | 1018.4 hPa | - | - | - | - |
| 1787787609 | 25° C | 75% | 1018.6 hPa | - | - | - | - |
* Rain since midnight (hover to see other rain measurements)
** Current wind speed in m/s (hover to see current wind gust speed)